Weather History for Broken Bow, NE

Change the Weather History Date:

Friday, February 3, 2012

  Actual Average Record
Temperature  
Mean Temperature 36 °F 26 °F  
Max Temperature 42 °F 38 °F 74 °F (1962)
Min Temperature 30 °F 13 °F -27 °F (1996)
Degree Days  
Heating Degree Days 29 39  
Month to date heating degree days 89 117  
Cooling Degree Days 0 0  
Month to date cooling degree days 0 0  
Year to date cooling degree days 0 0  
Moisture  
Dew Point 31 °F    
Average Humidity 76    
Maximum Humidity 100    
Minimum Humidity 51    
Precipitation  
Precipitation 0.07 in 0.02 in 0.38 in (1960)
Sea Level Pressure  
Sea Level Pressure 30.21 in    
Wind  
Wind Speed 15 mph (NNE)    
Max Wind Speed 25 mph    
Max Gust Speed 36 mph    
Visibility 3 miles    
Events Fog , Rain , Snow    
T = Trace of Precipitation, MM = Missing Value Source: NWS Daily Summary

Daily Weather History Graph

Daily Weather History Graph

Search for Another Location

Airport:

Trip Planner

Search our weather history database for the weather conditions in past years. The results will help you decide how hot, cold, wet, or windy it might be!

Date:

Astronomy

Feb. 03, 2012 Rise Set
Actual Time 7:48 AM CST 5:56 PM CST
Civil Twilight 7:19 AM CST 6:25 PM CST
Nautical Twilight 6:46 AM CST 6:58 PM CST
Astronomical Twilight 6:13 AM CST 7:31 PM CST
Moon 1:57 PM CST (2/3) 4:27 AM CST (2/3)
Length of Visible Light 11h 06m
Length of Day
10h 08m
Waxing Gibbous, 82% of the Moon is Illuminated
Feb 3
Waxing Gibbous
Feb 7
Full
Feb 14
Last Quarter
Feb 21
New
Feb 29
First Quarter

Hourly Weather History & Observations

Time (CST) Temp. Windchill Dew Point Humidity Pressure Visibility Wind Dir Wind Speed Gust Speed Precip Events Conditions
12:53 AM 39.9 °F 37.8 °F 24.1 °F 53% 30.18 in 10.0 mi NNE 3.5 mph - N/A   Overcast
1:53 AM 41.0 °F 37.1 °F 27.0 °F 57% 30.15 in 10.0 mi NE 5.8 mph - 0.00 in   Overcast
2:53 AM 41.0 °F 36.4 °F 26.1 °F 55% 30.14 in 10.0 mi ENE 6.9 mph - N/A   Overcast
3:53 AM 41.0 °F 34.3 °F 26.1 °F 55% 30.14 in 10.0 mi NE 11.5 mph - N/A   Overcast
4:53 AM 39.9 °F 34.5 °F 27.0 °F 60% 30.15 in 10.0 mi NNE 8.1 mph - N/A   Overcast
5:53 AM 36.0 °F 28.0 °F 32.0 °F 86% 30.19 in 6.0 mi North 11.5 mph - 0.01 in Rain Rain
6:06 AM 35.6 °F 27.5 °F 32.0 °F 87% 30.15 in 6.0 mi North 11.5 mph - 0.01 in Rain Rain
6:53 AM 35.1 °F 25.5 °F 35.1 °F 100% 30.21 in 4.0 mi North 15.0 mph - 0.04 in Rain Rain
7:24 AM 33.8 °F 23.5 °F - N/A% 30.17 in 2.5 mi North 16.1 mph - N/A Snow Light Snow
7:38 AM 33.8 °F 22.8 °F - N/A% 30.17 in 1.5 mi North 18.4 mph - N/A Snow Light Snow
7:53 AM 33.1 °F 21.9 °F 30.9 °F 92% 30.22 in 3.0 mi North 18.4 mph - N/A Snow Light Snow
8:00 AM 33.8 °F 22.5 °F 30.2 °F 87% 30.17 in 4.0 mi North 19.6 mph 25.3 mph 0.00 in Snow Light Snow
8:53 AM 33.1 °F 22.2 °F 30.9 °F 92% 30.22 in 4.0 mi North 17.3 mph - 0.00 in Snow Light Snow
9:22 AM 33.8 °F 23.9 °F 30.2 °F 87% 30.20 in 5.0 mi NNE 15.0 mph 24.2 mph 0.00 in Rain Light Rain
9:37 AM 33.8 °F 23.9 °F 30.2 °F 87% 30.20 in 4.0 mi NNE 15.0 mph 21.9 mph 0.01 in Rain Light Rain
9:53 AM 34.0 °F 23.0 °F 30.0 °F 85% 30.25 in 2.5 mi NNE 18.4 mph 25.3 mph 0.01 in Snow Light Snow
10:03 AM 33.8 °F 23.5 °F 30.2 °F 87% 30.20 in 1.5 mi NNE 16.1 mph - 0.00 in Snow Light Snow
10:19 AM 33.8 °F 24.3 °F 32.0 °F 93% 30.21 in 1.2 mi NNE 13.8 mph 21.9 mph 0.00 in Snow Light Snow
10:53 AM 33.1 °F 22.6 °F 32.0 °F 96% 30.27 in 1.8 mi NNE 16.1 mph - 0.00 in Snow Light Snow
11:22 AM 33.8 °F 23.9 °F 32.0 °F 93% 30.22 in 0.8 mi NNE 15.0 mph - 0.01 in Snow Light Snow
11:37 AM 33.8 °F 23.9 °F 32.0 °F 93% 30.21 in 1.0 mi NNE 15.0 mph - 0.01 in Snow Light Snow
11:45 AM 33.8 °F 23.9 °F 32.0 °F 93% 30.21 in 1.0 mi NNE 15.0 mph 24.2 mph 0.01 in Snow Light Snow
11:50 AM 33.8 °F 23.2 °F 32.0 °F 93% 30.21 in 1.0 mi NNE 17.3 mph 24.2 mph 0.01 in Snow Light Snow
11:53 AM 33.1 °F 22.6 °F 32.0 °F 96% 30.26 in 1.2 mi NNE 16.1 mph 24.2 mph 0.01 in Snow Light Snow
12:11 PM 33.8 °F 24.3 °F 32.0 °F 93% 30.21 in 1.0 mi NNE 13.8 mph 23.0 mph 0.00 in Snow Light Snow
12:21 PM 33.8 °F 23.5 °F 30.2 °F 87% 30.20 in 0.8 mi NNE 16.1 mph - 0.00 in Snow Light Snow
12:39 PM 33.8 °F 23.2 °F 32.0 °F 93% 30.19 in 1.2 mi NNE 17.3 mph - 0.00 in Snow Light Snow
12:53 PM 33.1 °F 23.0 °F 32.0 °F 96% 30.24 in 2.0 mi NNE 15.0 mph 23.0 mph 0.00 in Snow Light Snow
1:07 PM 33.8 °F 23.9 °F 30.2 °F 87% 30.19 in 4.0 mi NNE 15.0 mph - 0.00 in Snow Light Snow
1:40 PM 33.8 °F 23.2 °F 32.0 °F 93% 30.17 in 2.0 mi NNE 17.3 mph 25.3 mph 0.00 in   Overcast
1:50 PM 33.8 °F 23.5 °F 32.0 °F 93% 30.17 in 1.8 mi NNE 16.1 mph - 0.00 in Snow Light Snow
1:53 PM 33.1 °F 23.0 °F 32.0 °F 96% 30.23 in 1.5 mi NNE 15.0 mph - 0.00 in Snow Light Snow
2:19 PM 33.8 °F 22.8 °F 32.0 °F 93% 30.17 in 2.0 mi NNE 18.4 mph 24.2 mph 0.00 in   Overcast
2:53 PM 33.1 °F 21.9 °F 32.0 °F 96% 30.23 in 2.5 mi NNE 18.4 mph 24.2 mph 0.00 in   Overcast
3:39 PM 33.8 °F 22.5 °F 32.0 °F 93% 30.18 in 3.0 mi NNE 19.6 mph 27.6 mph 0.00 in   Overcast
3:53 PM 33.1 °F 22.6 °F 32.0 °F 96% 30.23 in 3.0 mi NNE 16.1 mph 26.5 mph 0.00 in Snow Light Snow
4:04 PM 33.8 °F 22.5 °F 30.2 °F 87% 30.18 in 2.5 mi NNE 19.6 mph 28.8 mph 0.00 in Snow Light Snow
4:24 PM 33.8 °F 21.9 °F 32.0 °F 93% 30.18 in 1.8 mi North 21.9 mph 28.8 mph 0.00 in Snow Light Snow
4:53 PM 32.0 °F 20.5 °F 32.0 °F 100% 30.24 in 1.2 mi NNE 18.4 mph 27.6 mph 0.00 in Snow Light Snow
5:31 PM 32.0 °F 20.1 °F 32.0 °F 100% 30.20 in 1.0 mi NNE 19.6 mph 29.9 mph 0.00 in Snow Light Snow
5:53 PM 32.0 °F 19.8 °F 32.0 °F 100% 30.27 in 1.0 mi NNE 20.7 mph 33.4 mph 0.00 in Snow Light Snow
6:02 PM 32.0 °F 20.1 °F 32.0 °F 100% 30.20 in 1.8 mi NNE 19.6 mph 28.8 mph 0.00 in Snow Light Snow
6:25 PM 32.0 °F 20.1 °F 32.0 °F 100% 30.21 in 2.5 mi NNE 19.6 mph 28.8 mph 0.00 in Snow Light Snow
6:34 PM 32.0 °F 19.5 °F 30.2 °F 93% 30.21 in 4.0 mi NNE 21.9 mph 33.4 mph 0.00 in Snow Light Snow
6:53 PM 32.0 °F 20.1 °F 30.9 °F 96% 30.28 in 6.0 mi NNE 19.6 mph 29.9 mph 0.00 in   Overcast
7:53 PM 30.9 °F 17.8 °F 30.0 °F 96% 30.30 in 8.0 mi NNE 23.0 mph 31.1 mph 0.00 in   Overcast
8:53 PM 30.9 °F 18.7 °F 30.9 °F 100% 30.30 in 2.5 mi NNE 19.6 mph 27.6 mph 0.00 in Snow Light Snow
9:04 PM 30.2 °F 17.8 °F 30.2 °F 100% 30.22 in 3.0 mi NNE 19.6 mph 28.8 mph 0.00 in Snow Light Snow
9:41 PM 32.0 °F 20.8 °F 30.2 °F 93% 30.23 in 2.5 mi NNE 17.3 mph 26.5 mph 0.00 in Snow Light Snow
9:53 PM 32.0 °F 20.1 °F 30.9 °F 96% 30.30 in 3.0 mi NNE 19.6 mph 25.3 mph 0.00 in Snow Light Snow
10:04 PM 32.0 °F 20.8 °F 30.2 °F 93% 30.24 in 1.8 mi NNE 17.3 mph 26.5 mph 0.00 in Snow Light Snow
10:23 PM 30.2 °F 19.3 °F 30.2 °F 100% 30.24 in 1.0 mi NNE 15.0 mph 24.2 mph 0.00 in Snow Light Snow
10:37 PM 30.2 °F 20.2 °F 30.2 °F 100% 30.24 in 1.2 mi NNE 12.7 mph 23.0 mph 0.00 in Snow Light Snow
10:53 PM 30.9 °F 19.4 °F 30.9 °F 100% 30.32 in 1.2 mi North 17.3 mph - 0.00 in Snow Light Snow
11:11 PM 30.2 °F 18.9 °F 30.2 °F 100% 30.25 in 1.0 mi North 16.1 mph - 0.00 in Snow Light Snow
11:30 PM 30.2 °F 18.1 °F 30.2 °F 100% 30.25 in 0.8 mi North 18.4 mph - 0.00 in Snow Light Snow
11:53 PM 30.0 °F 18.3 °F 30.0 °F 100% 30.32 in 0.5 mi North 17.3 mph 24.2 mph 0.00 in Fog , Snow Snow